Weather History for KPAM - May, 2012

Change the Weather History Date:

Saturday, May 5, 2012

  Actual Average Record
Temperature  
Mean Temperature 75 °F -  
Max Temperature 82 °F 78 °F - (-1)
Min Temperature 68 °F 62 °F - (-1)
Cooling Degree Days 10    
Growing Degree Days 25 (Base 50)    
Moisture  
Dew Point 70 °F    
Average Humidity 97    
Maximum Humidity 100    
Minimum Humidity 71    
Precipitation  
Precipitation 0.00 in - - ()
Sea Level Pressure  
Sea Level Pressure 30.00 in    
Wind  
Wind Speed 1 mph (SE)    
Max Wind Speed 14 mph    
Max Gust Speed -    
Visibility 5 miles    
Events Fog    
Averages and records for this station are not official NWS values.
T = Trace of Precipitation, MM = Missing Value Source: NWS Daily Summary

Daily Weather History Graph

Daily Weather History Graph

Search for Another Location

Airport or City:

Trip Planner

Search our weather history database for the weather conditions in past years. The results will help you decide how hot, cold, wet, or windy it might be!

Date:

Astronomy

May. 05, 2012 Rise Set
Actual Time 5:55 AM CDT 7:22 PM CDT
Civil Twilight 5:29 AM CDT 7:48 PM CDT
Nautical Twilight 4:59 AM CDT 8:19 PM CDT
Astronomical Twilight 4:27 AM CDT 8:51 PM CDT
Moon 7:12 PM CDT (5/5) 5:16 AM CDT (5/5)
Length of Visible Light 14h 18m
Length of Day
13h 27m
Full, 100% of the Moon is Illuminated
May 5
Full
May 5
Full
May 12
Last Quarter
May 20
New
May 28
First Quarter

Hourly Weather History & Observations

Time (CDT) Temp. Heat Index Dew Point Humidity Pressure Visibility Wind Dir Wind Speed Gust Speed Precip Events Conditions
12:55 AM 68.9 °F - 68.9 °F 100% 29.99 in 5.0 mi Calm Calm - N/A   Clear
12:56 AM 68.0 °F - 68.0 °F 100% 30.00 in 4.0 mi Calm Calm - N/A   Clear
1:00 AM 68.0 °F - 68.0 °F 100% 29.99 in 3.0 mi Calm Calm - N/A   Clear
1:01 AM 68.0 °F - 68.0 °F 100% 29.99 in 2.5 mi Calm Calm - N/A   Clear
1:05 AM 68.0 °F - 68.0 °F 100% 29.99 in 2.0 mi Calm Calm - N/A   Clear
1:09 AM 68.0 °F - 68.0 °F 100% 29.99 in 1.8 mi Calm Calm - N/A   Clear
1:12 AM 68.0 °F - 68.0 °F 100% 29.99 in 1.2 mi Calm Calm - N/A   Clear
1:22 AM 68.0 °F - 68.0 °F 100% 29.99 in 1.2 mi Calm Calm - N/A   Clear
1:23 AM 68.0 °F - 68.0 °F 100% 29.99 in 1.5 mi Calm Calm - N/A   Clear
1:28 AM 68.0 °F - 68.0 °F 100% 29.98 in 6.0 mi Calm Calm - N/A   Clear
1:42 AM 68.0 °F - 68.0 °F 100% 29.98 in 4.0 mi Calm Calm - N/A   Clear
1:44 AM 68.0 °F - 68.0 °F 100% 29.98 in 3.0 mi Calm Calm - N/A   Clear
1:47 AM 68.0 °F - 68.0 °F 100% 29.98 in 1.8 mi Calm Calm - N/A   Clear
1:50 AM 68.0 °F - 68.0 °F 100% 29.98 in 1.2 mi Calm Calm - N/A   Clear
1:51 AM 68.0 °F - 68.0 °F 100% 29.98 in 1.2 mi Calm Calm - N/A   Clear
1:55 AM 68.4 °F - 68.4 °F 100% 29.98 in 1.2 mi Calm Calm - N/A   Clear
1:56 AM 68.0 °F - 68.0 °F 100% 29.98 in 1.5 mi Calm Calm - N/A   Partly Cloudy
2:03 AM 68.0 °F - 68.0 °F 100% 29.99 in 6.0 mi Calm Calm - N/A   Partly Cloudy
2:21 AM 68.0 °F - 68.0 °F 100% 29.98 in 4.0 mi Calm Calm - N/A   Scattered Clouds
2:22 AM 68.0 °F - 68.0 °F 100% 29.98 in 4.0 mi Calm Calm - N/A   Scattered Clouds
2:26 AM 68.0 °F - 68.0 °F 100% 29.98 in 4.0 mi Calm Calm - N/A   Scattered Clouds
2:28 AM 68.0 °F - 68.0 °F 100% 29.97 in 5.0 mi Calm Calm - N/A   Scattered Clouds
2:55 AM 68.0 °F - 68.0 °F 100% 29.97 in 10.0 mi ESE 3.5 mph - N/A   Partly Cloudy
3:11 AM 68.0 °F - 68.0 °F 100% 29.97 in 5.0 mi Calm Calm - N/A   Partly Cloudy
3:12 AM 68.0 °F - 68.0 °F 100% 29.97 in 4.0 mi Calm Calm - N/A   Partly Cloudy
3:16 AM 68.0 °F - 68.0 °F 100% 29.97 in 3.0 mi Calm Calm - N/A   Partly Cloudy
3:18 AM 68.0 °F - 68.0 °F 100% 29.97 in 2.0 mi Calm Calm - N/A   Partly Cloudy
3:21 AM 68.0 °F - 68.0 °F 100% 29.97 in 1.0 mi Calm Calm - N/A   Mist
3:26 AM 68.0 °F - 68.0 °F 100% 29.98 in 0.5 mi Calm Calm - N/A Fog Fog
3:27 AM 68.0 °F - 68.0 °F 100% 29.97 in 0.5 mi Calm Calm - N/A Fog Fog
3:30 AM 68.0 °F - 68.0 °F 100% 29.97 in 0.5 mi Calm Calm - N/A Fog Fog
3:32 AM 68.0 °F - 68.0 °F 100% 29.98 in 0.8 mi Calm Calm - N/A   Mist
3:35 AM 68.0 °F - 68.0 °F 100% 29.98 in 1.0 mi Calm Calm - N/A   Mostly Cloudy
3:36 AM 68.0 °F - 68.0 °F 100% 29.98 in 1.0 mi Calm Calm - N/A   Mostly Cloudy
3:41 AM 68.0 °F - 68.0 °F 100% 29.98 in 2.0 mi Calm Calm - N/A   Mostly Cloudy
3:42 AM 68.0 °F - 68.0 °F 100% 29.98 in 2.5 mi Calm Calm - N/A   Mostly Cloudy
3:46 AM 68.0 °F - 68.0 °F 100% 29.98 in 7.0 mi Calm Calm - N/A   Mostly Cloudy
3:55 AM 68.0 °F - 68.0 °F 100% 29.99 in 10.0 mi Calm Calm - N/A   Overcast
4:07 AM 68.0 °F - 68.0 °F 100% 29.99 in 9.0 mi Calm Calm - N/A   Mostly Cloudy
4:33 AM 68.0 °F - 68.0 °F 100% 29.99 in 6.0 mi Calm Calm - N/A   Mostly Cloudy
4:35 AM 68.0 °F - 68.0 °F 100% 29.99 in 4.0 mi Calm Calm - N/A   Mostly Cloudy
4:37 AM 68.0 °F - 68.0 °F 100% 29.99 in 4.0 mi Calm Calm - N/A   Scattered Clouds
4:40 AM 68.0 °F - 68.0 °F 100% 29.99 in 3.0 mi Calm Calm - N/A   Scattered Clouds
4:48 AM 68.0 °F - 68.0 °F 100% 29.99 in 1.2 mi Calm Calm - N/A   Scattered Clouds
4:50 AM 68.0 °F - 68.0 °F 100% 29.99 in 1.0 mi Calm Calm - N/A   Mist
4:51 AM 68.0 °F - 68.0 °F 100% 29.99 in 1.0 mi Calm Calm - N/A   Mist
4:55 AM 68.0 °F - 68.0 °F 100% 29.99 in 1.0 mi Calm Calm - N/A   Mist
5:02 AM 68.0 °F - 68.0 °F 100% 29.99 in 0.8 mi Calm Calm - N/A   Mist
5:03 AM 68.0 °F - 68.0 °F 100% 29.99 in 0.8 mi Calm Calm - N/A   Mist
5:06 AM 68.0 °F - 68.0 °F 100% 29.99 in 1.0 mi Calm Calm - N/A   Mist
5:18 AM 68.0 °F - 68.0 °F 100% 29.99 in 1.2 mi Calm Calm - N/A   Scattered Clouds
5:19 AM 68.0 °F - 68.0 °F 100% 29.99 in 1.2 mi Calm Calm - N/A   Scattered Clouds
5:20 AM 68.0 °F - 68.0 °F 100% 29.99 in 1.5 mi Calm Calm - N/A   Scattered Clouds
5:25 AM 68.0 °F - 68.0 °F 100% 29.99 in 3.0 mi Calm Calm - N/A   Scattered Clouds
5:29 AM 68.0 °F - 68.0 °F 100% 29.99 in 4.0 mi ENE 3.5 mph - N/A   Scattered Clouds
5:31 AM 68.0 °F - 68.0 °F 100% 29.99 in 5.0 mi ENE 3.5 mph - N/A   Mostly Cloudy
5:38 AM 69.8 °F - 69.8 °F 100% 29.99 in 7.0 mi East 3.5 mph - N/A   Mostly Cloudy
5:40 AM 69.8 °F - 69.8 °F 100% 29.99 in 7.0 mi East 3.5 mph - N/A   Scattered Clouds
5:55 AM 70.0 °F - 70.0 °F 100% 29.99 in 7.0 mi ESE 3.5 mph - N/A   Mostly Cloudy
6:19 AM 69.8 °F - 69.8 °F 100% 30.00 in 5.0 mi Calm Calm - N/A   Mostly Cloudy
6:22 AM 69.8 °F - 69.8 °F 100% 30.00 in 6.0 mi Calm Calm - N/A   Mostly Cloudy
6:29 AM 69.8 °F - 69.8 °F 100% 30.00 in 6.0 mi Calm Calm - N/A   Mostly Cloudy
6:34 AM 69.8 °F - 69.8 °F 100% 30.00 in 2.0 mi ENE 3.5 mph - N/A   Mostly Cloudy
6:35 AM 69.8 °F - 69.8 °F 100% 30.00 in 1.8 mi ENE 3.5 mph - N/A   Mostly Cloudy
6:41 AM 69.8 °F - 69.8 °F 100% 30.01 in 0.8 mi Calm Calm - N/A   Mostly Cloudy
6:44 AM 69.8 °F - 69.8 °F 100% 30.01 in 1.0 mi Calm Calm - N/A   Mostly Cloudy
6:51 AM 69.8 °F - 69.8 °F 100% 30.01 in 3.0 mi Calm Calm - N/A   Mostly Cloudy
6:55 AM 70.5 °F - 70.5 °F 100% 30.01 in 4.0 mi ENE 3.5 mph - N/A   Mostly Cloudy
6:56 AM 69.8 °F - 69.8 °F 100% 30.01 in 4.0 mi ENE 3.5 mph - N/A   Mostly Cloudy
7:04 AM 71.6 °F - 71.6 °F 100% 30.01 in 4.0 mi Calm Calm - N/A   Overcast
7:07 AM 71.6 °F - 71.6 °F 100% 30.01 in 5.0 mi Calm Calm - N/A   Mostly Cloudy
7:23 AM 71.6 °F - 71.6 °F 100% 30.01 in 4.0 mi NE 3.5 mph - N/A   Overcast
7:34 AM 71.6 °F - 71.6 °F 100% 30.02 in 5.0 mi Calm Calm - N/A   Overcast
7:55 AM 72.9 °F - 72.9 °F 100% 30.02 in 10.0 mi NE 3.5 mph - N/A   Mostly Cloudy
8:04 AM 73.4 °F - 73.4 °F 100% 30.02 in 10.0 mi ENE 3.5 mph - N/A   Mostly Cloudy
8:12 AM 75.2 °F - 75.2 °F 100% 30.03 in 10.0 mi Variable 3.5 mph - N/A   Scattered Clouds
8:48 AM 75.2 °F - 73.4 °F 94% 30.04 in 10.0 mi ESE 3.5 mph - N/A   Mostly Cloudy
8:55 AM 75.6 °F - 73.4 °F 93% 30.05 in 10.0 mi SE 3.5 mph - N/A   Mostly Cloudy
9:03 AM 75.2 °F - 73.4 °F 94% 30.05 in 10.0 mi Variable 3.5 mph - N/A   Overcast
9:12 AM 77.0 °F - 73.4 °F 89% 30.05 in 10.0 mi Calm Calm - N/A   Overcast
9:16 AM 77.0 °F - 73.4 °F 89% 30.05 in 10.0 mi Variable 3.5 mph - N/A   Overcast
9:30 AM 77.0 °F - 73.4 °F 89% 30.05 in 10.0 mi Variable 3.5 mph - N/A   Mostly Cloudy
9:33 AM 77.0 °F - 73.4 °F 89% 30.04 in 10.0 mi Calm Calm - N/A   Scattered Clouds
9:45 AM 77.0 °F - 73.4 °F 89% 30.05 in 10.0 mi Variable 4.6 mph - N/A   Mostly Cloudy
9:51 AM 77.0 °F - 73.4 °F 89% 30.05 in 10.0 mi Variable 3.5 mph - N/A   Mostly Cloudy
9:55 AM 77.7 °F - 72.9 °F 85% 30.05 in 10.0 mi Calm Calm - N/A   Mostly Cloudy
10:18 AM 78.8 °F - 73.4 °F 83% 30.05 in 10.0 mi SW 5.8 mph - N/A   Mostly Cloudy
10:23 AM 80.6 °F 85.4 °F 73.4 °F 79% 30.05 in 10.0 mi Variable 3.5 mph - N/A   Scattered Clouds
10:55 AM 81.3 °F 85.9 °F 72.1 °F 74% 30.04 in 10.0 mi Calm Calm - N/A   Partly Cloudy
11:55 AM 82.6 °F 87.8 °F 72.5 °F 71% 30.03 in 10.0 mi SSW 10.4 mph - N/A   Scattered Clouds
12:55 PM 81.9 °F 87.0 °F 72.7 °F 74% 30.01 in 10.0 mi SSW 11.5 mph - N/A   Mostly Cloudy
1:55 PM 81.3 °F 87.2 °F 74.7 °F 80% 30.00 in 10.0 mi SSW 13.8 mph - N/A   Scattered Clouds
2:55 PM 80.8 °F 85.6 °F 73.2 °F 78% 29.99 in 10.0 mi SSW 10.4 mph - N/A   Clear
3:55 PM 79.9 °F - 73.4 °F 80% 29.96 in 10.0 mi SSW 9.2 mph - N/A   Clear
4:55 PM 78.8 °F - 73.2 °F 83% 29.96 in 10.0 mi SSW 12.7 mph - N/A   Clear
5:55 PM 77.9 °F - 73.6 °F 86% 29.95 in 10.0 mi South 8.1 mph - N/A   Clear
6:55 PM 75.9 °F - 73.0 °F 91% 29.95 in 10.0 mi SSW 10.4 mph - N/A   Clear
7:55 PM 74.5 °F - 72.0 °F 92% 29.96 in 10.0 mi SSW 6.9 mph - N/A   Clear
8:55 PM 73.8 °F - 72.9 °F 97% 29.97 in 10.0 mi SSW 5.8 mph - N/A   Clear
9:55 PM 73.9 °F - 72.9 °F 96% 29.96 in 10.0 mi SW 6.9 mph - N/A   Clear
10:55 PM 73.4 °F - 73.0 °F 99% 29.97 in 10.0 mi SSW 5.8 mph - N/A   Clear
11:55 PM 70.2 °F - 70.0 °F 99% 29.98 in 10.0 mi SW 3.5 mph - N/A   Clear